Radiation Dose at Monitoring Post of Fukushima Daini Nuclear Power Station
Date,Time,MP-1(microSv/h),MP-2(microSv/h),MP-3(microSv/h),MP-4(microSv/h),MP-5(microSv/h),MP-6(microSv/h),MP-7(microSv/h),Wind Direction,Wind Velocity(m/s),Rain
2018/12/26,00:00,0.221,0.190,0.309,0.290,0.275,0.155,0.094,south-southwest,3.6,No
2018/12/26,00:10,0.222,0.192,0.309,0.291,0.276,0.155,0.095,south-southwest,3.2,No
2018/12/26,00:20,0.223,0.192,0.309,0.291,0.278,0.156,0.093,west-southwest,2.6,No
2018/12/26,00:30,0.222,0.191,0.309,0.290,0.276,0.154,0.095,west-southwest,1.9,No
2018/12/26,00:40,0.222,0.190,0.308,0.291,0.276,0.155,0.094,south-southwest,1.7,No
2018/12/26,00:50,0.221,0.191,0.309,0.290,0.276,0.155,0.093,south-southwest,3.6,No
2018/12/26,01:00,0.222,0.192,0.309,0.291,0.278,0.155,0.095,south-southwest,3.6,No
2018/12/26,01:10,0.222,0.192,0.308,0.289,0.276,0.156,0.094,south-southwest,4.3,No
2018/12/26,01:20,0.221,0.192,0.310,0.291,0.277,0.155,0.095,southwest,4.3,No
2018/12/26,01:30,0.221,0.191,0.308,0.289,0.276,0.156,0.094,south-southwest,3.5,No
2018/12/26,01:40,0.222,0.192,0.310,0.290,0.276,0.155,0.094,south-southwest,3.5,No
2018/12/26,01:50,0.222,0.192,0.308,0.290,0.275,0.155,0.094,south-southwest,2.8,No
2018/12/26,02:00,0.221,0.191,0.309,0.290,0.276,0.155,0.094,southwest,2.7,No
2018/12/26,02:10,0.222,0.191,0.308,0.291,0.276,0.155,0.094,southwest,3.2,No
2018/12/26,02:20,0.222,0.191,0.310,0.290,0.276,0.155,0.094,southwest,3.0,No
2018/12/26,02:30,0.222,0.192,0.310,0.291,0.276,0.155,0.094,southwest,2.4,No
2018/12/26,02:40,0.221,0.191,0.308,0.290,0.276,0.154,0.094,southwest,2.0,No
2018/12/26,02:50,0.222,0.191,0.307,0.290,0.276,0.154,0.094,west,1.5,No
2018/12/26,03:00,0.222,0.191,0.309,0.290,0.276,0.156,0.094,west,2.1,No
2018/12/26,03:10,0.222,0.190,0.309,0.290,0.276,0.156,0.094,southwest,1.9,No
2018/12/26,03:20,0.221,0.191,0.308,0.291,0.277,0.155,0.095,west-southwest,2.4,No
2018/12/26,03:30,0.223,0.192,0.310,0.290,0.276,0.155,0.095,west-southwest,1.5,No
2018/12/26,03:40,0.222,0.191,0.309,0.290,0.276,0.155,0.094,west,0.9,No
2018/12/26,03:50,0.223,0.191,0.311,0.291,0.276,0.155,0.095,northwest,2.0,No
2018/12/26,04:00,0.223,0.190,0.308,0.292,0.275,0.155,0.094,west-northwest,1.9,No
2018/12/26,04:10,0.221,0.192,0.309,0.291,0.276,0.156,0.094,west,1.3,No
2018/12/26,04:20,0.222,0.193,0.308,0.290,0.275,0.155,0.094,west,2.9,No
2018/12/26,04:30,0.222,0.191,0.309,0.291,0.276,0.155,0.095,west,2.0,No
2018/12/26,04:40,0.222,0.191,0.309,0.289,0.276,0.155,0.095,northwest,3.8,No
2018/12/26,04:50,0.222,0.191,0.309,0.291,0.277,0.156,0.095,northwest,4.8,No
2018/12/26,05:00,0.222,0.191,0.308,0.290,0.277,0.155,0.094,west-northwest,4.0,No
2018/12/26,05:10,0.221,0.191,0.307,0.290,0.276,0.155,0.094,west-northwest,5.2,No
2018/12/26,05:20,0.223,0.192,0.308,0.291,0.278,0.156,0.093,west-northwest,5.2,No
2018/12/26,05:30,0.222,0.191,0.309,0.291,0.275,0.155,0.094,west-northwest,5.6,No
2018/12/26,05:40,0.222,0.192,0.308,0.290,0.275,0.155,0.094,west-northwest,6.3,No
2018/12/26,05:50,0.221,0.191,0.309,0.289,0.276,0.154,0.095,west-northwest,7.3,No
2018/12/26,06:00,0.221,0.191,0.308,0.289,0.277,0.155,0.094,west-northwest,8.8,No
2018/12/26,06:10,0.222,0.191,0.306,0.289,0.276,0.155,0.094,west-northwest,12.0,No
2018/12/26,06:20,0.222,0.192,0.310,0.290,0.275,0.155,0.094,west-northwest,16.1,No
2018/12/26,06:30,0.221,0.191,0.308,0.290,0.275,0.155,0.094,west,14.2,No
2018/12/26,06:40,0.221,0.190,0.309,0.290,0.276,0.155,0.094,west,8.1,No
2018/12/26,06:50,0.222,0.191,0.308,0.288,0.277,0.154,0.094,west,8.4,No
2018/12/26,07:00,0.222,0.192,0.308,0.289,0.276,0.155,0.094,west,8.5,No
2018/12/26,07:10,0.221,0.191,0.309,0.290,0.277,0.154,0.094,west-southwest,6.8,No
2018/12/26,07:20,0.220,0.190,0.308,0.290,0.278,0.155,0.094,west-southwest,5.5,No
2018/12/26,07:30,0.222,0.191,0.308,0.290,0.275,0.154,0.093,west-southwest,7.1,No
2018/12/26,07:40,0.221,0.191,0.309,0.289,0.277,0.155,0.094,west-southwest,8.1,No
2018/12/26,07:50,0.222,0.192,0.309,0.290,0.275,0.154,0.094,west,6.0,No
2018/12/26,08:00,0.222,0.192,0.308,0.289,0.274,0.155,0.094,west,4.5,No
2018/12/26,08:10,0.221,0.192,0.308,0.289,0.277,0.155,0.094,west-northwest,4.1,No
2018/12/26,08:20,0.222,0.191,0.309,0.290,0.276,0.154,0.094,west-northwest,2.1,No
2018/12/26,08:30,0.221,0.191,0.307,0.289,0.275,0.155,0.094,west,1.4,No
2018/12/26,08:40,0.221,0.191,0.308,0.289,0.277,0.155,0.094,west-southwest,1.1,No
2018/12/26,08:50,0.222,0.190,0.309,0.290,0.276,0.154,0.094,west,2.7,No
2018/12/26,09:00,0.221,0.190,0.308,0.289,0.275,0.155,0.094,west,3.9,No
2018/12/26,09:10,0.222,0.192,0.309,0.289,0.277,0.154,0.093,west-southwest,2.6,No
2018/12/26,09:20,0.221,0.190,0.308,0.290,0.274,0.155,0.094,west-southwest,2.5,No
2018/12/26,09:30,0.221,0.191,0.308,0.290,0.278,0.154,0.095,west-southwest,2.0,No
2018/12/26,09:40,0.220,0.191,0.308,0.289,0.276,0.154,0.094,west-southwest,2.2,No
2018/12/26,09:50,0.220,0.191,0.308,0.289,0.276,0.154,0.094,west-northwest,1.0,No
2018/12/26,10:00,0.221,0.192,0.308,0.288,0.277,0.154,0.094,northwest,1.2,No
2018/12/26,10:10,0.221,0.191,0.308,0.290,0.276,0.154,0.094,west-northwest,2.0,No
2018/12/26,10:20,0.222,0.190,0.308,0.289,0.276,0.154,0.094,west,1.5,No
2018/12/26,10:30,0.221,0.192,0.307,0.288,0.277,0.154,0.094,west-northwest,2.0,No
2018/12/26,10:40,0.221,0.190,0.307,0.289,0.276,0.154,0.094,northwest,1.7,No
2018/12/26,10:50,0.222,0.190,0.307,0.290,0.278,0.154,0.094,north-northwest,2.1,No
2018/12/26,11:00,0.221,0.190,0.309,0.289,0.277,0.155,0.095,north,2.2,No
2018/12/26,11:10,0.221,0.191,0.309,0.289,0.278,0.155,0.094,north,2.2,No
2018/12/26,11:20,0.220,0.192,0.308,0.288,0.276,0.154,0.093,north,3.1,No
2018/12/26,11:30,0.221,0.191,0.307,0.290,0.275,0.153,0.094,north,2.7,No
2018/12/26,11:40,0.221,0.191,0.308,0.290,0.277,0.155,0.095,north,3.0,No
2018/12/26,11:50,0.220,0.192,0.307,0.291,0.276,0.156,0.095,north,3.5,No
2018/12/26,12:00,0.221,0.190,0.309,0.290,0.278,0.155,0.093,north-northwest,3.3,No
2018/12/26,12:10,0.221,0.190,0.307,0.289,0.275,0.155,0.094,north-northwest,3.1,No
2018/12/26,12:20,0.219,0.191,0.307,0.291,0.278,0.155,0.093,north-northwest,3.5,No
2018/12/26,12:30,0.222,0.191,0.309,0.289,0.277,0.155,0.094,northwest,5.0,No
2018/12/26,12:40,0.221,0.192,0.308,0.289,0.276,0.155,0.093,north-northwest,4.2,No
2018/12/26,12:50,0.221,0.191,0.307,0.291,0.278,0.155,0.094,north-northwest,3.7,No
2018/12/26,13:00,0.222,0.191,0.309,0.289,0.276,0.154,0.094,north-northwest,1.7,No
2018/12/26,13:10,0.221,0.192,0.307,0.290,0.278,0.155,0.094,north-northwest,3.6,No
2018/12/26,13:20,0.220,0.190,0.308,0.289,0.277,0.154,0.093,north,3.0,No
2018/12/26,13:30,0.220,0.192,0.307,0.289,0.277,0.154,0.093,north-northwest,4.0,No
2018/12/26,13:40,0.219,0.191,0.308,0.289,0.277,0.154,0.095,north,2.7,No
2018/12/26,13:50,0.220,0.191,0.308,0.288,0.275,0.155,0.094,north-northwest,2.5,No
2018/12/26,14:00,0.218,0.191,0.306,0.291,0.278,0.155,0.094,northwest,2.1,No
2018/12/26,14:10,0.219,0.190,0.309,0.289,0.277,0.154,0.094,northwest,2.6,No
2018/12/26,14:20,0.219,0.191,0.308,0.289,0.278,0.154,0.095,north-northwest,3.2,No
2018/12/26,14:30,0.218,0.191,0.308,0.291,0.275,0.154,0.094,northwest,3.6,No
2018/12/26,14:40,0.222,0.191,0.308,0.288,0.277,0.155,0.093,northwest,5.2,No
2018/12/26,14:50,0.219,0.191,0.307,0.291,0.277,0.155,0.094,northwest,4.8,No
2018/12/26,15:00,0.221,0.191,0.308,0.288,0.277,0.154,0.094,northwest,3.2,No
2018/12/26,15:10,0.221,0.190,0.306,0.290,0.278,0.154,0.094,north-northwest,4.2,No
2018/12/26,15:20,0.220,0.191,0.310,0.291,0.277,0.155,0.094,north-northwest,3.4,No
2018/12/26,15:30,0.222,0.190,0.309,0.288,0.278,0.154,0.094,west-northwest,1.5,No
2018/12/26,15:40,0.220,0.192,0.308,0.291,0.277,0.154,0.093,north-northwest,1.4,No
2018/12/26,15:50,0.219,0.192,0.308,0.289,0.276,0.153,0.094,northwest,0.9,No
2018/12/26,16:00,0.220,0.191,0.308,0.290,0.278,0.156,0.094,north,1.8,No
2018/12/26,16:10,0.218,0.192,0.307,0.291,0.276,0.155,0.094,north-northwest,2.9,No
2018/12/26,16:20,0.220,0.192,0.309,0.290,0.278,0.155,0.094,northwest,2.9,No
2018/12/26,16:30,0.219,0.191,0.307,0.290,0.277,0.156,0.094,north-northwest,3.2,No
2018/12/26,16:40,0.220,0.192,0.309,0.291,0.277,0.155,0.094,northwest,3.9,No
2018/12/26,16:50,0.222,0.192,0.309,0.291,0.278,0.155,0.094,west-northwest,6.3,No
2018/12/26,17:00,0.223,0.190,0.308,0.291,0.276,0.156,0.094,west-northwest,5.3,No
2018/12/26,17:10,0.222,0.191,0.309,0.292,0.277,0.156,0.094,west-northwest,4.7,No
2018/12/26,17:20,0.223,0.192,0.309,0.291,0.278,0.155,0.095,northwest,2.6,No
2018/12/26,17:30,0.223,0.191,0.308,0.291,0.276,0.155,0.094,west-northwest,4.8,No
2018/12/26,17:40,0.222,0.191,0.308,0.291,0.276,0.155,0.094,northwest,4.5,No
2018/12/26,17:50,0.222,0.192,0.310,0.291,0.276,0.156,0.094,west-northwest,3.7,No
2018/12/26,18:00,0.223,0.191,0.308,0.290,0.276,0.154,0.094,west-northwest,3.5,No
2018/12/26,18:10,0.222,0.192,0.309,0.291,0.275,0.155,0.094,west-northwest,3.0,No
2018/12/26,18:20,0.223,0.191,0.309,0.290,0.277,0.155,0.094,northwest,2.9,No
2018/12/26,18:30,0.222,0.191,0.308,0.289,0.276,0.155,0.093,west-northwest,3.6,No
2018/12/26,18:40,0.222,0.191,0.309,0.289,0.276,0.156,0.094,northwest,4.5,No
2018/12/26,18:50,0.222,0.192,0.309,0.291,0.276,0.155,0.094,west-northwest,4.8,No
2018/12/26,19:00,0.223,0.192,0.309,0.290,0.278,0.155,0.095,west-northwest,3.6,No
2018/12/26,19:10,0.223,0.192,0.308,0.290,0.276,0.155,0.095,west-northwest,3.6,No
2018/12/26,19:20,0.222,0.191,0.309,0.291,0.277,0.155,0.094,west-northwest,2.5,No
2018/12/26,19:30,0.222,0.192,0.309,0.290,0.276,0.155,0.094,northwest,2.8,No
2018/12/26,19:40,0.223,0.191,0.308,0.291,0.276,0.155,0.094,northwest,3.6,No
2018/12/26,19:50,0.224,0.192,0.307,0.290,0.277,0.155,0.094,west-northwest,2.5,No
2018/12/26,20:00,0.222,0.192,0.308,0.289,0.277,0.155,0.094,northwest,2.9,No
2018/12/26,20:10,0.222,0.191,0.308,0.290,0.276,0.154,0.094,west-northwest,4.0,No
2018/12/26,20:20,0.223,0.192,0.308,0.290,0.276,0.155,0.095,west-northwest,3.4,No
2018/12/26,20:30,0.222,0.191,0.309,0.291,0.277,0.155,0.093,west,6.1,No
2018/12/26,20:40,0.222,0.191,0.308,0.290,0.276,0.155,0.094,west,8.8,No
2018/12/26,20:50,0.222,0.192,0.309,0.291,0.276,0.155,0.095,west,7.5,No
2018/12/26,21:00,0.223,0.191,0.310,0.291,0.276,0.155,0.094,west,9.8,No
2018/12/26,21:10,0.223,0.191,0.309,0.291,0.277,0.154,0.094,west,8.1,No
2018/12/26,21:20,0.223,0.192,0.308,0.292,0.277,0.155,0.093,west,9.5,No
2018/12/26,21:30,0.222,0.191,0.309,0.290,0.276,0.155,0.094,west,8.4,No
2018/12/26,21:40,0.222,0.191,0.311,0.290,0.278,0.155,0.093,west,8.5,No
2018/12/26,21:50,0.223,0.192,0.309,0.290,0.278,0.156,0.094,west,9.3,Yes
2018/12/26,22:00,0.223,0.192,0.310,0.291,0.276,0.155,0.094,west,9.8,Yes
2018/12/26,22:10,0.223,0.192,0.310,0.291,0.278,0.156,0.094,west,8.8,Yes
2018/12/26,22:20,0.224,0.192,0.309,0.290,0.279,0.157,0.095,west,8.6,Yes
2018/12/26,22:30,0.224,0.194,0.311,0.291,0.277,0.156,0.094,west,10.6,Yes
2018/12/26,22:40,0.224,0.193,0.310,0.291,0.277,0.156,0.096,west,10.0,Yes
2018/12/26,22:50,0.224,0.193,0.310,0.292,0.278,0.156,0.095,west,9.3,No
2018/12/26,23:00,0.223,0.193,0.310,0.291,0.277,0.156,0.095,west,8.1,Yes
2018/12/26,23:10,0.224,0.192,0.312,0.291,0.278,0.156,0.095,west,8.8,No
2018/12/26,23:20,0.223,0.192,0.309,0.290,0.277,0.156,0.095,west,8.7,No
2018/12/26,23:30,0.224,0.192,0.309,0.291,0.277,0.156,0.094,west,5.4,No
2018/12/26,23:40,0.223,0.193,0.310,0.291,0.277,0.155,0.095,west,4.3,No
2018/12/26,23:50,0.224,0.192,0.309,0.290,0.278,0.155,0.095,west,3.8,No
